Location: Forli
(44.2227°N, 12.0407°E)
Time: 13:44:21
(UTC+02:00)

UWE-3 - Pass Details

Date: 20 April 2026
Orbit: 542 x 613 km, 97.9° (Epoch: 10 May)

Event Time Altitude Azimuth Distance (km) Brightness Sun altitude
Rises 03:49:52 0° 17° (NNE) 2,734 ? -23.6°
Reaches altitude 10° 03:52:03 10° 21° (NNE) 1,828 ? -23.4°
Maximum altitude 03:55:55 56° 100° (E) 653 ? -22.9°
Enters shadow 03:56:25 51° 133° (SE) 688 ? -22.8°
